Regional Weather Roundup
Issued by NWS

Home | Current Version | Previous Version | Graphics & Text | Print | Product List | Glossary On
Versions: 1 2 3 4 5 6 7 8 9 10 11 12 13 14 15 16 17 18 19 20 21 22 23 24 25 26 27 28 29 30 31 32 33 34 35 36 37 38 39 40 41 42 43 44 45 46 47 48 49 50
000
ASUS43 KTOP 271708
RWRKS

WEATHER ROUNDUP FOR KANSAS
NATIONAL WEATHER SERVICE GOODLAND KS
1200 PM CDT FRI MAY 27 2016

NOTE:  "FAIR" INDICATES FEW OR NO CLOUDS BELOW 12,000 FEET WITH NO
SIGNIFICANT WEATHER AND/OR OBSTRUCTIONS TO VISIBILITY.

KSZ001>006-013>018-027>032-041>047-271800-
NORTHWEST KANSAS

CITY           SKY/WX    TMP DP  RH WIND       PRES   REMARKS
GOODLAND       CLOUDY    60  52  74 NE10      29.74F
HAYS           CLOUDY    36 N/A N/A E10       29.71S WCI  28
HILL CITY      LGT RAIN  60  58  92 NE9       29.74S FOG
RUSSELL        CLOUDY    64  61  90 SE13      29.71S
$$

KSZ061>065-074>080-084>089-271800-
SOUTHWEST KANSAS

CITY           SKY/WX    TMP DP  RH WIND       PRES   REMARKS
DODGE CITY     PTSUNNY   66  57  72 CALM      29.70R
ELKHART          N/A     65  43  45 W22         N/A
GARDEN CITY    SUNNY     67  49  52 W10       29.70S
GREAT BEND     PTSUNNY   66  57  72 SE10      29.70S
LIBERAL        SUNNY     70  45  40 W17G23    29.74S
PRATT          PTSUNNY   67  61  79 W14       29.70R
$$

KSZ066>073-081>083-090>101-271800-
SOUTHEAST KANSAS

CITY           SKY/WX    TMP DP  RH WIND       PRES   REMARKS
CHANUTE        CLOUDY    74  66  76 S13       29.72S
COFFEYVILLE    CLOUDY    74  66  76 SE12G20   29.71R
HUTCHINSON     CLOUDY    71  64  78 SE12      29.71S
MEDICINE LODGE   N/A     74  59  59 SW17G24   29.67F
NEWTON         CLOUDY    70  61  73 SE14G20   29.74R
PARSONS        CLOUDY    72  66  81 SE10      29.72R
WICHITA INTL   CLOUDY    72  65  78 SE9       29.70R
WICHITA JABRA  CLOUDY    70  65  84 SE12      29.70S
WICHITA MCCONL CLOUDY    70  64  82 SE10      29.70S
WINFIELD       PTSUNNY   73  66  78 SE13      29.70R
$$

KSZ007>012-019>026-033>040-048>060-102>105-271800-
NORTHEAST KANSAS

CITY           SKY/WX    TMP DP  RH WIND       PRES   REMARKS
CONCORDIA      CLOUDY    63  59  87 E7        29.74F
EMPORIA        MOSUNNY   71  64  78 S14       29.72S
LAWRENCE       CLOUDY    70  62  76 S8        29.74F
MANHATTAN      CLOUDY    71  58  63 SE8       29.73F
MARYSVILLE     CLOUDY    70  61  73 S3        29.75F
OLATHE IND     CLOUDY    72  63  73 S9        29.75S
OLATHE EXE     CLOUDY    72  62  71 S10       29.74F
SALINA         CLOUDY    74  63  68 SE14      29.72F
TOPEKA BILLARD CLOUDY    70  60  70 S7        29.73F
TOPEKA FORBES  PTSUNNY   70  61  73 SE9       29.73F
$$




USA.gov is the U.S. government's official web portal to all federal, state and local government web resources and services.